Home   Weather   Brønnøysund   Past weeks

Flag for Norway Past Weather in Brønnøysund, Norway — Yesterday and Last 2 Weeks

Now
41 °F

Scattered clouds.


Feels Like: 39 °F
Forecast: 34 / 45 °F
Wind: 3 mph from Southeast

Location: Bronnoysund / Bronnoy

Current Time: Apr 27, 2017 at 11:22:06 am

Latest Report: Apr 27, 2017 at 10:50 am


Visibility: N/A

Pressure: 29.83 "Hg

Humidity: 57%

Dew Point: 27 °F

Location of BrønnøysundLocation

Past Weather in Brønnøysund — Graph

°F

Brønnøysund Temperature Yesterday

Maximum temperature yesterday: 43 °F (at 1:20 pm)
Minimum temperature yesterday: 28 °F (at 3:20 am)
Average temperature yesterday: 37 °F

High & Low Weather Summary for the Past Weeks

 TemperatureHumidityPressure
High46 °F (Apr 25, 1:20 pm)100% (Apr 20, 6:50 am)30.48 "Hg (Apr 20, 6:50 am)
Low27 °F (Apr 16, 4:20 am)31% (Apr 17, 3:50 pm)29.27 "Hg (Apr 21, 8:50 am)
Average36 °F65%29.81 "Hg
* Reported Apr 12 9:20 am — Apr 27 9:50 am, Brønnøysund, Weather by CustomWeather, © 2017

Note: Actual official high and low records may vary slightly from our data, if they occured in-between our weather recording intervals... More about our weather records

Advertising

Brønnøysund Weather History for the Previous 24 Hours

Scroll right to see more
 ConditionsComfort  
Time TempWeatherWind HumidityBarometerVisibility
9:50 am
Thu, Apr 27
36 °FPassing clouds.5 mph70%29.80 "HgN/A
9:20 am37 °FPassing clouds.6 mph70%29.80 "HgN/A
8:50 am39 °FPassing clouds.2 mph70%29.77 "HgN/A
8:20 am39 °FPassing clouds.3 mph65%29.77 "HgN/A
7:50 am36 °FSunny.5 mph75%29.77 "Hg10 mi
7:20 am37 °FSunny.3 mph70%29.77 "Hg10 mi
6:50 am36 °FPassing clouds.3 mph75%29.77 "HgN/A
6:20 am34 °FPassing clouds.3 mph81%29.74 "HgN/A
5:50 am32 °FPassing clouds.5 mph87%29.74 "HgN/A
5:20 am30 °FChilly.5 mph93%29.74 "HgN/A
4:50 am30 °FChilly.3 mph93%29.74 "HgN/A
4:20 am30 °FChilly.3 mph93%29.74 "HgN/A
3:20 am30 °FChilly.2 mph100%29.74 "HgN/A
2:50 am30 °FChilly.1 mph93%29.74 "HgN/A
2:20 am30 °FPassing clouds.2 mph93%29.74 "HgN/A
1:50 am30 °FPassing clouds.2 mph93%29.71 "HgN/A
1:20 am32 °FChilly.No wind93%29.71 "HgN/A
12:50 am32 °FChilly.1 mph93%29.71 "HgN/A
12:20 am32 °FPassing clouds.3 mph87%29.71 "HgN/A
11:50 pm
Wed, Apr 26
32 °FPassing clouds.1 mph87%29.71 "HgN/A
11:20 pm34 °FPassing clouds.3 mph81%29.71 "HgN/A
10:50 pm34 °FPassing clouds.5 mph81%29.71 "HgN/A
9:50 pm36 °FPassing clouds.6 mph70%29.71 "HgN/A
9:20 pm36 °FPassing clouds.8 mph75%29.71 "HgN/A
8:50 pm37 °FPassing clouds.8 mph60%29.71 "HgN/A
7:50 pm39 °FScattered clouds.10 mph56%29.71 "HgN/A
7:20 pm39 °FScattered clouds.8 mph56%29.71 "HgN/A
6:50 pm39 °FPassing clouds.8 mph61%29.71 "HgN/A
6:20 pm39 °FPassing clouds.9 mph65%29.71 "HgN/A
5:50 pm39 °FPassing clouds.10 mph65%29.71 "HgN/A
5:20 pm39 °FPassing clouds.9 mph65%29.71 "HgN/A
4:50 pm39 °FScattered showers. Scattered clouds.9 mph65%29.71 "HgN/A
4:20 pm39 °FScattered showers. Scattered clouds.9 mph65%29.71 "HgN/A
3:50 pm41 °FScattered clouds.8 mph57%29.71 "HgN/A
3:20 pm41 °FScattered clouds.8 mph61%29.71 "HgN/A
2:50 pm41 °FScattered clouds.8 mph53%29.71 "HgN/A
2:20 pm43 °FScattered showers. Scattered clouds.5 mph49%29.71 "HgN/A
1:50 pm39 °FScattered showers. Scattered clouds.7 mph61%29.71 "HgN/A
1:20 pm43 °FScattered showers. Passing clouds.8 mph61%29.71 "HgN/A
12:50 pm39 °FScattered showers. Passing clouds.10 mph70%29.71 "HgN/A
12:20 pm39 °FScattered showers. Passing clouds.8 mph70%29.71 "HgN/A
11:50 am37 °FScattered showers. Passing clouds.12 mph75%29.71 "HgN/A
11:20 am41 °FScattered clouds.5 mph53%29.71 "HgN/A
Weather by CustomWeather, © 2017

See weather overviewHow to use our weather pages